Location: Pallagorio
(39.3000°N, 16.9000°E)
Time: 02:04:21
(UTC+00:00)

Cosmos 2344 - Pass Details

Date: 24 January 2021
Orbit: 1243 x 2999 km, 63.3° (Epoch: 08 March)

Event Time Altitude Azimuth Distance (km) Brightness Sun altitude
Rises 18:04:13 0° 326° (NNW) 4,654 6.9 -23.2°
Reaches altitude 10° 18:06:53 10° 329° (NNW) 3,821 6.4 -23.7°
Maximum altitude 18:16:39 74° 55° (NE) 2,062 4.4 -25.6°
Drops below altitude 10° 18:30:24 10° 140° (SE) 5,228 6.4 -28.3°
Enters shadow 18:31:54 - 141° (SE) 5,656 6.6 -28.6°
Exits shadow 18:33:13 - 142° (SE) 6,023 6.8 -28.8°
Sets 18:34:42 0° 142° (SE) 6,440 6.9 -29.1°
